Location: Tucson
(32.2217°N, 110.9265°W)
Time: 17:02:54
(UTC-07:00)

Hubble Space Telescope - Visible Passes

Search period start: 18 January 2019 00:00
Search period end: 28 January 2019 00:00
Orbit: 537 x 540 km, 28.5° (Epoch: 18 January)

Date Brightness Start Highest point End Pass type
(mag) Time Alt. Az. Time Alt. Az. Time Alt. Az.
18 Jan 2.4 05:13:07 29° SSE 05:13:07 29° SSE 05:16:12 10° ESE visible
18 Jan 1.5 06:49:30 10° WSW 06:53:29 49° S 06:57:30 10° ESE visible
19 Jan 2.7 05:03:27 27° SE 05:03:27 27° SE 05:05:50 10° E visible
19 Jan 1.4 06:39:00 10° WSW 06:43:01 50° S 06:47:02 10° ESE visible
20 Jan 3.1 04:53:42 22° ESE 04:53:42 22° ESE 04:55:26 10° E visible
20 Jan 1.4 06:29:03 13° WSW 06:32:33 50° S 06:36:34 10° ESE visible
21 Jan 3.5 04:43:55 17° ESE 04:43:55 17° ESE 04:45:02 10° E visible
21 Jan 1.4 06:19:15 18° WSW 06:22:05 48° S 06:26:04 10° ESE visible
22 Jan 3.9 04:34:05 13° ESE 04:34:05 13° ESE 04:34:35 10° E visible
22 Jan 1.4 06:09:26 23° WSW 06:11:36 45° S 06:15:34 10° ESE visible
23 Jan 1.5 05:59:35 29° WSW 06:01:07 41° S 06:05:02 10° ESE visible
24 Jan 1.6 05:49:45 33° SW 05:50:38 37° SSW 05:54:28 10° SE visible
25 Jan 1.8 05:39:55 32° SSW 05:40:08 33° SSW 05:43:51 10° SE visible
26 Jan 2.2 05:30:06 27° S 05:30:06 27° S 05:33:12 10° SE visible
27 Jan 2.7 05:20:19 21° S 05:20:19 21° S 05:22:28 10° SE visible
